Theta_e
343 344 343 342 342 342 342 343 344 343 343 343 342 341 339 336 333 331 332 332 332 335 338 338 338 338 337 335 333 333 331 327 326 325 324 325 322 320 324 326 325 326 331 334 334 335 335 335 335 335 335 334 334 336 337 337 337 335 334 333 330 323
343 343 342 342 342 342 341 342 343 343 342 341 340 339 337 335 335 336 337 337 336 338 338 338 338 339 338 337 335 333 332 328 325 325 324 323 320 319 324 325 324 324 328 331 333 335 335 334 335 335 335 334 334 337 338 337 336 335 334 333 331 327
343 343 342 342 342 342 341 341 341 341 340 339 337 337 336 336 338 339 339 337 337 338 338 338 337 338 338 337 336 333 331 328 325 325 324 323 320 318 323 324 324 322 324 328 331 337 339 337 335 334 335 334 336 338 338 338 336 335 334 334 333 329
342 342 342 342 342 341 340 338 339 339 339 337 333 334 336 337 338 338 338 337 337 338 338 338 337 338 339 337 338 335 331 328 325 325 323 323 321 319 322 323 323 322 321 325 331 338 341 340 338 335 334 335 338 338 338 338 336 335 334 334 333 330
342 342 341 341 342 342 340 338 338 338 338 336 332 332 334 336 337 337 338 337 337 338 338 339 337 338 339 338 339 337 331 328 326 325 323 323 321 319 321 321 321 319 318 324 332 339 340 340 340 337 335 337 340 340 339 337 336 336 334 335 333 330
341 342 342 342 343 343 340 339 339 338 338 338 336 335 335 335 336 336 336 335 336 338 339 339 338 338 339 339 339 338 332 328 325 326 324 324 325 321 320 323 324 318 316 327 335 339 339 338 340 338 337 339 340 340 339 337 336 336 335 335 330 324
341 342 343 342 343 344 341 340 341 340 340 340 339 338 338 337 337 336 335 333 335 339 339 338 339 338 339 339 339 338 335 330 328 328 326 327 333 330 323 327 332 325 320 330 337 338 338 337 338 338 338 340 339 338 338 337 337 336 336 335 326 316
340 341 343 342 343 345 342 341 341 341 341 340 340 339 339 338 338 338 337 335 336 338 339 337 338 338 338 338 338 338 337 334 331 332 329 327 335 336 328 328 335 332 326 330 335 336 336 337 338 337 338 338 339 338 337 338 337 336 336 335 328 318
340 341 342 342 342 345 344 343 341 341 342 340 340 340 339 339 338 338 338 338 337 338 338 337 338 338 338 338 337 338 337 335 332 333 333 329 332 337 332 329 333 334 330 329 332 333 333 335 337 336 336 337 337 337 337 337 337 337 336 335 333 325
342 343 342 343 343 343 345 344 342 342 342 341 341 341 339 339 338 338 338 338 337 337 338 338 337 338 338 338 337 337 337 336 333 331 333 331 329 334 335 330 331 334 331 329 330 330 330 332 334 334 335 337 338 338 338 338 337 338 336 335 335 331
341 342 342 343 343 343 344 344 343 342 342 342 342 342 340 339 339 339 339 338 338 337 338 338 337 338 338 338 337 337 337 337 335 332 332 332 328 330 335 331 330 333 332 330 330 329 329 330 332 332 332 335 338 338 338 338 337 337 336 336 335 333
340 339 340 341 342 342 343 343 344 342 342 343 342 342 341 340 339 339 339 339 339 339 338 338 337 337 338 337 337 337 337 336 337 335 333 333 329 327 333 332 329 332 333 331 330 329 328 329 331 332 331 333 337 338 338 337 338 337 336 336 335 335
340 340 340 340 340 340 341 342 343 343 342 343 342 342 341 341 340 339 339 339 339 339 339 339 338 337 337 337 336 337 337 337 337 336 334 334 331 328 332 334 330 332 333 332 330 329 328 328 330 331 330 331 335 337 338 337 337 337 336 336 335 335
340 341 340 340 340 340 339 339 341 342 342 343 343 342 342 342 341 340 340 339 338 339 339 339 338 337 337 336 336 336 336 337 337 336 336 335 333 330 333 335 333 333 334 332 330 329 330 329 329 330 329 330 334 336 337 337 337 337 336 336 336 335
339 340 340 340 340 339 338 337 338 339 341 342 342 342 342 342 342 341 341 340 339 340 340 339 339 338 337 337 337 337 336 337 338 337 337 336 334 333 334 335 334 334 334 331 329 329 331 330 329 330 330 329 332 336 337 337 338 337 337 336 336 335
341 340 340 340 340 340 338 337 337 338 338 341 342 343 343 342 342 342 341 341 339 340 341 340 339 339 338 337 337 337 337 337 337 337 337 336 335 334 334 334 334 334 333 331 329 329 330 332 331 330 331 329 329 335 337 337 338 337 337 336 336 336
343 340 340 340 341 340 339 338 337 337 338 339 341 342 342 342 342 341 340 341 340 340 341 341 340 340 338 338 338 338 337 337 338 337 337 337 336 335 334 334 334 334 333 331 330 330 330 332 332 330 331 330 329 333 336 337 338 337 337 337 336 336
343 341 340 340 341 341 339 339 339 338 337 338 339 341 342 341 341 340 340 340 340 340 341 341 340 340 339 338 338 338 338 338 338 337 337 337 337 335 334 334 334 334 334 331 330 330 329 331 334 331 331 332 331 333 335 337 337 337 337 337 337 336
343 341 341 340 341 342 340 339 340 339 338 338 338 339 340 341 340 339 339 339 340 340 340 340 340 340 340 338 338 338 338 338 338 338 337 338 338 336 334 335 335 334 334 332 331 331 329 330 333 333 332 332 332 334 335 336 337 337 337 337 337 337
342 342 342 341 341 342 340 339 340 339 339 338 338 338 339 340 339 339 339 339 339 340 340 340 340 340 340 338 338 338 339 339 338 338 338 338 338 337 336 336 336 335 335 334 333 333 330 329 332 333 332 333 333 334 335 336 337 337 338 338 337 337
341 342 342 342 341 341 340 339 339 339 339 339 338 338 337 339 339 338 339 339 339 340 339 340 340 340 340 339 338 338 339 339 338 338 338 338 337 337 337 336 336 336 335 335 334 333 332 329 330 333 333 333 333 334 334 335 336 336 337 338 337 337
339 341 341 341 341 341 340 340 340 340 339 339 338 337 337 339 339 338 338 338 338 339 339 339 339 339 339 339 338 338 339 339 339 338 339 338 337 338 337 335 335 337 336 335 335 334 333 331 330 333 334 335 336 336 335 334 334 335 336 336 337 337
339 339 340 340 341 340 339 340 339 339 340 340 338 337 337 339 339 338 338 337 337 339 339 338 338 338 338 339 338 338 339 339 339 339 339 339 338 338 338 335 335 337 336 335 336 335 334 333 332 332 335 338 339 339 338 336 335 335 335 335 336 337
335 336 337 338 339 340 339 338 337 337 339 339 338 337 336 337 337 337 337 337 337 338 339 338 337 336 338 339 339 338 339 340 340 339 339 339 339 338 338 337 335 336 336 335 335 335 334 334 333 333 335 337 338 339 339 338 336 335 335 335 334 334
331 331 334 336 337 338 339 338 337 337 337 337 337 337 336 336 337 336 336 337 337 338 338 339 338 336 336 338 339 338 338 339 340 340 339 339 339 338 338 338 336 336 336 336 335 335 335 334 334 333 334 336 337 338 339 337 337 338 336 335 334 333
330 331 332 334 336 337 338 338 339 338 337 337 337 337 337 337 336 336 336 336 337 337 337 338 338 337 336 337 338 338 338 339 340 339 340 339 339 339 338 338 337 336 336 336 335 334 334 334 334 333 333 335 336 338 340 340 341 342 340 336 335 335
329 331 332 333 335 337 336 337 338 337 337 339 338 337 338 337 337 338 337 337 337 337 337 337 337 337 336 336 337 338 338 339 340 339 339 339 340 339 339 338 338 337 337 336 336 336 335 334 334 333 333 334 334 334 336 341 344 344 343 341 338 337
327 331 333 334 334 336 335 335 337 337 337 337 336 337 338 336 337 339 337 337 338 336 336 336 336 336 336 336 337 338 337 339 340 340 339 339 339 339 340 339 338 337 337 337 336 336 336 336 335 334 334 334 334 334 333 336 339 340 343 344 341 339
327 329 333 335 334 336 336 335 334 335 336 336 336 336 337 337 337 338 337 337 338 337 336 336 336 336 336 336 336 337 337 338 339 340 339 339 339 340 340 339 338 338 337 337 336 335 335 336 336 335 335 334 334 334 333 334 337 338 340 342 342 341
326 327 330 335 336 337 337 334 333 334 334 335 336 336 337 338 337 338 337 336 337 338 336 336 336 335 336 336 336 337 337 338 339 340 340 340 339 340 340 340 339 338 338 338 337 336 336 336 337 336 335 335 335 334 334 336 338 337 337 339 340 339
326 326 327 331 335 338 337 333 332 334 333 333 335 336 338 339 337 337 338 337 337 338 338 337 337 336 336 336 336 336 337 338 339 339 339 340 340 340 340 340 339 338 338 338 338 338 337 335 337 337 335 335 335 334 334 337 336 335 336 338 341 340
325 326 326 327 330 335 337 335 334 334 333 333 335 336 338 338 337 337 338 337 337 337 338 338 338 338 337 337 336 336 337 337 338 338 339 339 340 340 340 339 339 338 338 338 338 338 338 336 336 338 337 335 335 334 334 336 334 333 335 338 341 342
324 325 326 326 327 330 335 337 337 335 335 335 336 337 337 338 337 336 337 338 337 337 337 338 339 339 338 337 337 336 337 337 338 338 338 339 340 340 339 338 338 339 339 339 338 338 338 338 337 338 338 336 336 335 334 334 333 333 336 338 340 341
323 325 325 326 327 327 330 334 336 337 337 336 336 336 337 337 337 336 336 336 337 337 337 338 339 339 339 338 337 336 337 337 337 338 338 338 340 340 339 338 338 339 339 339 338 338 338 339 337 338 339 338 337 336 336 335 335 336 338 338 340 340
322 324 325 325 326 327 329 331 333 335 336 336 337 337 337 337 337 336 336 336 336 337 337 338 339 339 338 338 337 336 336 336 336 337 338 337 338 340 339 338 338 338 339 339 338 338 338 339 339 338 339 339 339 338 338 339 339 339 339 339 340 339
321 323 324 324 325 326 327 329 332 334 335 335 335 335 336 336 336 335 335 336 336 337 338 338 338 339 339 338 337 336 336 337 336 336 337 337 337 339 339 338 338 338 339 340 339 339 338 339 340 339 339 340 340 340 340 341 340 340 340 339 340 339
319 321 323 324 324 325 326 328 330 332 334 334 334 335 336 336 336 335 335 336 336 336 337 338 338 339 339 338 338 337 337 337 337 336 337 337 337 338 339 338 338 338 339 339 340 340 339 339 339 340 339 339 340 340 340 340 340 340 340 339 339 340
Wind_Speed
25 25 25 24 23 22 22 23 24 24 24 25 25 25 26 25 25 24 22 22 20 20 18 17 17 15 14 15 14 12 12 13 12 12 11 10 8 8 9 10 9 9 8 7 6 4 5 6 6 7 7 7 6 4 2 3 4 8 7 6 4 5
24 23 24 24 24 22 23 24 22 23 24 24 26 25 25 25 24 22 21 20 20 19 18 17 17 16 14 14 14 14 13 14 13 13 12 11 10 9 10 11 9 9 9 8 7 5 5 6 7 8 8 8 6 3 0 2 4 7 8 6 4 4
23 23 23 22 23 23 23 24 23 22 22 24 26 25 24 24 22 22 21 20 21 20 19 18 17 17 16 15 15 15 15 15 14 14 13 12 11 10 11 11 10 9 9 9 8 6 5 5 6 8 8 8 6 3 1 2 3 7 8 5 3 3
22 23 24 22 22 24 24 26 25 24 23 24 26 26 24 24 23 22 23 22 22 21 20 19 17 17 17 16 16 16 16 15 15 15 14 12 11 11 12 12 11 10 9 10 9 9 8 7 6 7 8 8 5 3 3 3 3 6 9 6 4 3
22 24 23 22 23 24 26 26 26 26 24 24 25 26 25 24 23 23 24 24 23 22 21 20 19 20 18 17 17 16 17 17 17 17 16 14 13 12 13 13 12 12 11 11 10 10 10 10 9 8 8 7 5 5 5 5 4 8 12 7 3 1
17 22 22 22 22 25 27 26 27 28 26 25 26 26 26 24 24 24 25 24 24 22 21 21 21 22 20 19 19 17 18 19 18 18 17 15 13 14 14 13 12 12 12 11 10 11 11 12 12 10 9 8 8 8 8 6 7 12 12 7 3 1
17 18 21 21 21 25 29 27 27 29 28 27 28 27 26 26 25 25 25 24 24 23 22 22 22 23 22 21 21 18 18 19 18 18 18 16 13 14 15 14 13 13 13 12 12 13 14 13 10 10 12 10 9 9 9 8 8 11 9 6 4 2
24 23 24 24 23 24 28 27 27 29 29 28 29 28 28 26 26 26 26 25 24 23 23 23 22 24 23 22 22 20 18 18 19 19 18 17 16 16 16 15 14 14 13 13 14 15 16 17 12 11 12 10 10 10 10 11 10 10 8 7 6 3
31 31 30 27 24 25 26 25 27 28 28 29 28 27 28 27 27 27 27 26 26 24 23 23 23 24 24 22 21 21 19 19 20 20 19 19 18 18 17 16 16 16 14 14 14 13 14 16 14 12 12 10 10 11 11 11 11 11 10 8 7 6
30 31 32 30 25 24 25 24 25 26 25 28 28 25 26 27 26 27 28 27 27 26 24 23 23 24 25 23 22 22 21 21 21 21 21 20 20 20 19 17 18 17 16 15 15 13 12 12 12 12 12 11 11 12 12 12 12 12 11 9 8 7
17 17 20 26 25 23 25 23 22 24 25 26 26 25 26 26 26 26 28 28 27 27 25 24 24 24 25 24 24 24 23 22 22 22 21 21 21 21 20 18 18 18 17 16 15 14 14 13 12 12 12 12 12 12 12 12 11 12 12 12 11 8
17 15 11 14 17 17 21 23 24 24 25 26 26 26 27 27 26 26 28 31 29 28 27 26 25 24 25 26 24 24 24 23 22 21 22 21 21 21 20 18 19 18 18 17 14 14 15 14 13 12 13 12 12 12 12 12 11 12 13 12 11 9
22 19 17 16 17 15 14 17 23 27 26 28 29 27 27 27 27 27 27 31 31 29 28 27 26 23 24 25 23 23 23 24 23 21 21 22 21 21 18 18 19 17 17 18 16 14 15 14 13 13 14 13 14 13 12 14 13 12 12 11 11 10
23 24 24 24 24 21 18 16 17 21 24 27 28 27 27 26 26 26 25 29 32 29 28 28 26 23 22 23 23 23 23 23 24 22 21 21 21 22 20 17 18 16 16 18 17 15 14 15 14 13 14 14 15 15 13 14 14 13 11 11 13 12
25 27 27 26 28 26 25 22 18 18 20 24 26 24 25 25 25 25 22 26 31 28 27 28 26 24 22 22 22 23 23 22 23 23 22 21 20 22 22 20 19 18 18 19 18 17 14 15 15 14 15 14 13 15 14 14 15 15 14 13 14 13
27 29 29 29 30 28 26 26 24 20 19 20 23 23 23 24 24 24 21 23 28 28 26 27 26 24 24 23 21 22 24 22 22 23 22 21 20 20 20 21 22 20 19 19 19 18 16 16 16 15 15 16 13 13 14 14 14 16 15 15 16 14
31 31 30 30 31 31 27 25 27 24 20 20 21 23 23 24 24 25 24 23 27 29 28 27 26 24 25 26 23 21 23 24 23 24 23 21 22 22 20 20 22 22 19 19 19 19 17 16 17 16 15 16 15 13 14 14 14 14 15 16 17 17
30 30 29 31 32 32 29 26 26 26 24 22 22 22 24 25 25 26 26 25 26 29 30 29 29 26 25 27 26 23 23 25 24 24 24 22 21 24 23 20 22 23 21 19 19 20 20 17 18 18 16 16 15 13 13 14 14 14 15 16 17 19
27 26 27 30 31 31 30 27 27 25 24 25 24 23 24 26 26 27 28 27 27 30 31 31 30 27 26 28 28 25 24 26 26 25 25 24 22 23 25 22 22 24 23 20 18 19 20 18 17 18 17 16 17 15 14 14 15 14 14 16 16 17
26 25 24 28 29 29 27 27 27 24 23 27 28 26 26 27 28 29 30 29 29 31 32 32 31 28 27 28 29 26 24 26 27 26 26 26 25 25 25 24 21 22 23 21 18 18 20 19 16 17 17 16 17 18 16 15 16 16 15 16 16 16
25 25 23 25 28 29 28 26 25 25 24 25 28 29 28 28 28 30 32 31 29 32 33 32 31 30 29 29 30 27 24 26 28 28 27 28 27 25 25 25 22 21 23 22 20 19 19 19 16 14 14 15 16 18 18 16 16 17 17 18 17 17
22 24 24 25 27 29 30 29 26 27 26 22 21 24 27 27 27 28 31 33 31 32 35 33 32 32 31 29 30 29 26 26 29 29 27 27 28 25 25 27 24 21 23 23 21 20 21 19 16 13 11 9 10 13 17 18 18 17 17 18 19 19
16 18 21 23 24 25 29 29 26 26 27 24 21 22 25 26 27 24 26 30 31 33 35 35 34 33 32 30 30 30 27 26 29 30 28 27 28 28 27 28 27 22 21 22 21 21 24 22 17 15 11 6 5 6 10 15 19 20 20 19 20 20
10 13 15 20 24 24 24 26 25 24 26 27 27 26 25 26 27 27 26 27 28 32 36 36 35 34 34 32 32 32 29 27 29 32 30 29 29 30 29 29 29 25 21 21 21 21 25 26 21 16 10 5 5 5 4 9 15 22 25 22 21 21
8 10 12 16 22 22 19 21 23 22 22 22 25 26 25 26 27 28 30 30 28 31 36 35 35 35 34 34 34 35 32 28 30 32 31 31 31 31 31 30 30 29 26 24 21 20 24 26 25 22 15 7 6 5 4 8 11 15 23 24 22 23
10 10 11 14 19 22 22 23 21 19 20 20 20 24 27 30 30 31 34 36 32 32 34 35 35 35 34 34 35 36 34 30 30 33 33 32 31 31 31 31 31 31 30 28 24 20 22 25 25 26 24 17 11 7 3 5 6 4 13 21 20 21
10 9 11 11 15 24 28 27 25 23 24 23 22 27 34 35 34 34 36 36 34 32 33 34 34 34 34 35 35 36 36 31 30 34 34 33 32 32 32 32 32 32 31 31 28 22 21 25 24 24 29 27 22 18 10 5 4 2 4 11 15 17
10 7 10 12 14 23 30 30 29 28 26 24 24 30 36 37 36 32 30 31 33 33 33 33 33 33 33 36 36 36 38 34 31 33 35 34 33 32 32 32 32 32 31 31 32 28 22 23 25 24 27 29 27 24 19 12 9 6 2 4 7 12
11 7 9 13 15 19 27 30 28 27 25 26 27 28 30 32 36 34 28 29 31 33 34 33 33 33 33 34 36 37 38 37 34 33 35 35 34 33 33 34 33 34 33 32 33 32 26 23 24 24 25 26 25 23 21 17 14 12 7 4 4 5
12 9 7 12 16 18 25 28 28 29 31 33 32 28 28 28 29 30 30 30 30 30 33 33 33 34 34 34 35 36 38 39 37 34 35 35 35 35 35 36 35 35 35 33 32 32 30 26 23 23 25 24 23 21 17 14 14 15 10 7 5 4
13 12 9 9 13 19 25 29 33 35 35 36 37 31 30 29 26 25 28 32 32 30 31 33 33 34 36 35 35 38 38 39 38 36 35 36 36 36 36 36 35 34 35 34 32 31 31 30 25 21 24 24 23 23 19 14 15 16 12 8 6 4
16 15 12 9 10 14 21 28 33 36 35 35 36 33 32 32 29 27 27 32 33 31 30 32 34 34 36 37 36 38 40 40 39 39 38 36 37 36 35 34 34 34 35 35 33 30 29 31 29 23 23 25 24 25 25 21 18 18 16 13 9 4
18 17 15 13 12 12 17 24 28 32 35 35 35 36 35 33 32 30 29 30 32 31 31 32 34 35 37 40 40 38 40 42 41 42 42 37 36 37 35 34 33 33 34 34 34 32 28 29 31 26 23 26 26 25 26 26 22 20 19 17 13 7
21 19 18 16 14 13 14 20 25 29 32 34 34 35 36 36 35 32 31 32 32 32 34 35 37 40 40 42 43 40 39 42 42 42 43 39 35 36 35 34 34 32 32 32 33 32 29 28 30 29 24 25 26 25 25 25 25 23 20 18 16 11
22 21 21 19 18 16 14 15 20 26 30 34 34 33 35 37 37 35 33 34 33 32 34 37 38 42 43 41 43 42 39 40 42 41 42 42 37 35 36 35 34 33 31 30 31 32 31 28 29 30 28 25 26 26 26 24 24 23 21 20 19 18
24 23 22 22 21 19 16 15 17 22 28 32 34 33 33 35 35 36 35 35 35 35 37 40 40 41 44 43 42 43 41 40 42 41 40 42 39 35 35 34 33 33 32 31 30 31 32 30 29 30 30 28 26 26 27 26 24 23 22 22 20 21
25 25 24 24 23 21 18 17 17 20 25 30 32 32 33 36 37 37 37 36 37 39 41 44 45 43 42 43 43 43 43 40 40 40 38 40 40 36 33 33 33 33 32 32 31 31 31 30 29 29 29 30 29 26 25 26 26 25 23 23 22 20
Wind_Direction
170 167 166 165 166 172 179 181 179 181 183 184 184 184 183 181 181 180 179 177 175 174 174 180 181 180 183 187 193 196 199 198 198 203 204 207 205 196 190 186 183 175 177 179 183 184 178 183 178 171 159 158 160 144 94 63 81 86 105 154 117 67
171 170 166 164 163 169 176 176 176 179 181 184 185 186 185 180 179 177 176 176 172 173 175 183 184 181 186 186 193 199 202 206 203 204 205 206 206 197 191 190 185 181 183 183 185 183 186 190 181 180 171 171 181 178 116 86 94 99 120 155 134 71
174 173 168 165 164 169 172 171 172 176 177 181 184 184 182 179 176 174 175 176 174 176 176 186 186 182 191 188 193 203 202 207 206 204 206 205 207 200 195 192 188 187 186 186 186 173 186 203 189 187 181 182 187 194 221 130 113 123 135 171 165 92
178 176 173 170 169 173 172 170 171 172 174 177 181 181 180 179 178 176 178 178 178 179 177 187 188 182 191 188 191 205 204 207 207 205 206 204 207 204 200 196 191 193 190 189 185 174 188 206 206 201 191 190 185 204 215 165 160 143 146 177 170 110
181 179 180 176 172 176 175 173 173 173 176 177 178 179 180 180 180 179 180 181 180 180 180 187 189 183 188 188 190 202 205 207 206 207 208 205 209 208 203 200 197 197 193 191 189 184 193 198 202 211 203 193 193 223 217 165 156 154 161 182 172 128
190 185 186 182 175 178 180 177 176 175 177 180 179 178 181 182 182 183 182 183 182 182 184 187 189 185 187 189 190 195 201 206 207 209 210 205 208 212 206 200 203 205 195 191 198 196 198 199 200 208 210 199 197 219 214 176 157 162 174 188 166 142
187 195 197 195 184 181 184 183 180 177 177 180 180 180 183 184 184 185 185 185 184 185 187 189 189 186 188 191 192 194 197 202 205 207 211 203 202 214 209 199 204 211 201 196 207 207 203 205 202 203 209 206 204 211 199 181 169 169 182 185 153 115
179 193 202 203 193 185 185 187 185 180 179 180 181 182 184 185 186 186 187 187 186 187 189 191 189 186 191 193 193 195 195 198 200 203 211 204 197 212 212 199 202 211 208 205 213 217 208 200 195 199 205 203 208 205 186 179 180 182 187 183 161 125
183 187 198 205 197 189 187 188 188 182 182 183 182 183 185 187 188 187 188 189 189 190 192 194 192 189 192 196 194 195 196 198 199 199 208 206 198 208 212 202 203 208 209 212 218 220 209 194 186 193 199 195 203 199 187 182 179 184 187 188 182 157
189 188 194 204 200 191 189 189 189 185 184 184 183 184 185 188 188 187 190 190 192 193 195 196 197 192 191 197 198 198 199 198 200 199 205 209 202 206 211 204 206 208 208 214 218 214 211 202 185 187 197 192 193 192 189 185 176 182 191 197 197 177
214 216 204 205 203 194 190 190 190 188 186 184 183 185 186 189 188 188 191 191 192 195 196 197 200 197 192 197 201 201 202 199 200 199 203 209 205 207 210 205 209 211 209 214 216 210 210 209 193 192 204 193 188 193 191 190 182 183 193 198 197 189
232 257 246 220 217 206 194 195 194 189 189 187 185 186 188 191 190 190 192 193 193 194 197 198 200 200 193 196 202 202 202 202 203 201 203 207 204 210 212 206 213 215 210 215 219 213 208 207 200 198 209 199 190 198 195 192 188 184 191 196 195 200
216 225 226 223 227 231 224 216 205 192 190 191 187 186 190 193 193 193 194 195 195 194 197 199 200 200 195 195 202 204 203 203 205 205 206 207 203 208 213 207 217 220 209 215 225 220 208 205 208 203 210 208 193 197 202 197 193 187 192 197 199 203
212 212 215 218 218 224 233 242 234 207 194 191 189 188 190 194 194 195 197 197 197 197 198 200 200 200 196 196 202 205 205 203 205 207 208 210 203 203 212 212 219 222 212 216 225 225 210 202 212 212 215 220 198 193 205 202 192 188 193 196 200 203
214 211 212 216 216 216 218 222 235 233 213 195 191 192 191 194 196 197 197 195 196 198 199 201 201 200 198 198 201 202 205 204 203 206 208 209 203 198 207 215 220 223 217 218 220 223 215 202 213 217 216 227 210 193 199 203 197 194 195 190 193 202
216 215 214 215 216 216 216 214 214 225 234 215 196 193 193 193 197 200 199 196 196 198 200 202 201 201 201 201 202 201 205 206 203 204 206 208 207 199 202 214 220 222 220 219 216 221 219 204 212 222 219 226 224 204 197 203 208 203 200 195 193 197
216 217 216 218 219 219 218 216 211 209 224 231 211 195 193 195 195 197 198 198 200 200 200 201 201 202 201 199 201 202 205 207 205 203 202 205 208 204 205 213 219 222 223 220 214 219 223 206 208 222 223 222 224 216 203 204 211 206 204 205 202 202
217 217 218 219 221 223 218 216 216 207 205 221 225 206 195 197 195 194 197 198 200 201 200 199 200 202 201 199 201 204 204 205 205 201 200 202 203 205 210 216 218 220 224 223 212 215 225 213 203 217 224 222 221 219 213 211 215 213 208 207 206 209
220 219 221 221 218 220 220 218 217 212 204 206 220 222 205 198 196 194 197 200 199 199 199 198 199 201 200 200 202 204 204 204 204 200 199 199 199 202 210 219 217 215 221 225 215 212 224 220 203 209 220 221 220 221 218 214 220 224 217 212 212 211
217 215 218 218 216 217 219 221 217 215 214 203 208 223 216 203 199 197 199 202 201 199 198 196 198 199 199 201 203 206 205 202 203 200 197 197 198 200 209 219 216 212 217 221 220 215 222 226 211 207 217 221 219 217 219 220 222 226 224 222 222 215
205 207 214 214 214 215 216 221 219 216 219 208 205 218 222 210 203 202 201 203 202 200 198 196 197 198 198 201 203 207 206 201 200 200 198 197 198 201 208 218 219 215 213 215 219 219 220 226 216 205 212 221 220 212 213 223 224 223 226 226 224 222
203 205 212 214 214 214 214 217 219 216 214 212 209 221 230 220 211 208 203 203 201 198 197 195 196 198 199 201 203 208 208 201 198 199 200 199 198 201 206 213 218 216 210 210 216 216 217 223 215 202 198 206 219 215 212 222 230 228 228 228 225 223
221 219 217 215 213 213 215 216 220 218 212 212 215 228 239 230 222 220 207 203 205 199 195 195 197 199 200 202 203 207 209 203 198 197 199 199 199 202 204 208 214 215 206 207 216 216 217 221 213 199 192 189 199 208 215 221 228 233 232 231 228 221
254 249 235 223 218 218 220 220 224 226 217 212 215 227 244 243 234 229 217 210 211 202 194 195 198 198 199 201 203 207 209 205 198 196 198 198 199 202 204 205 210 212 205 204 213 215 217 222 217 199 188 189 189 191 219 212 215 228 230 230 232 226
291 275 261 245 231 222 223 225 225 228 223 217 220 226 237 243 239 233 225 220 218 205 195 194 196 196 198 199 201 205 207 206 200 196 198 199 200 204 206 205 205 208 207 204 207 211 215 221 219 210 200 190 183 193 223 206 203 222 225 224 230 231
306 289 278 266 244 226 224 227 224 227 226 217 219 221 219 222 227 231 228 224 220 208 199 196 194 195 198 199 201 203 205 206 200 197 198 200 201 204 206 206 203 204 206 206 206 206 209 215 218 218 217 217 214 215 225 198 190 205 214 218 225 228
313 292 275 275 253 230 222 222 219 222 229 224 217 218 215 211 215 224 226 223 219 210 202 197 196 197 199 200 202 203 205 206 202 199 200 201 202 204 205 205 205 204 204 205 208 209 203 205 211 219 223 229 233 239 251 235 196 148 180 211 224 225
320 298 265 267 262 238 223 217 217 217 225 233 228 224 219 210 211 223 230 229 221 212 205 199 199 200 201 202 203 202 204 206 204 201 200 202 203 203 204 204 204 205 204 204 208 214 207 198 202 210 218 227 236 242 248 247 234 232 185 182 216 221
318 310 265 257 263 252 232 220 219 220 222 231 236 235 230 219 214 219 229 237 229 215 208 204 203 204 205 205 204 202 202 205 207 202 200 203 204 204 204 203 203 203 203 204 207 212 212 203 201 203 206 216 228 235 241 244 239 236 232 210 197 200
314 317 293 252 244 246 238 223 218 223 222 224 230 234 235 231 225 220 220 231 234 221 209 206 207 208 210 209 207 204 202 204 207 203 202 204 204 205 204 203 204 203 203 204 206 209 212 210 208 206 201 205 215 220 226 231 227 224 226 228 226 216
313 313 312 275 241 231 227 220 220 226 224 223 226 228 229 228 230 229 218 218 227 227 216 208 207 209 213 213 210 206 204 204 206 205 204 204 204 205 205 203 204 204 203 205 206 207 209 211 214 213 204 202 207 211 213 215 213 213 211 212 221 236
315 308 306 301 273 240 222 216 220 227 227 225 225 228 230 226 223 227 222 216 219 225 225 217 210 209 212 216 214 209 205 204 205 208 208 206 205 205 205 205 204 203 204 205 206 205 206 209 213 216 208 205 209 210 213 217 216 214 214 213 211 219
313 309 305 298 287 265 237 222 220 225 226 225 225 226 230 230 224 222 223 221 219 222 229 226 215 210 210 214 216 211 205 203 205 208 209 208 206 204 205 205 204 204 204 204 205 205 205 206 210 215 210 207 210 209 212 217 218 219 217 213 209 214
309 308 304 297 287 278 260 239 230 230 228 227 227 225 228 230 228 224 221 222 220 219 227 229 220 212 209 212 215 214 208 204 205 207 208 209 207 203 204 204 203 205 205 203 203 205 207 207 209 214 212 209 209 210 212 214 214 217 215 208 204 207
308 306 303 298 291 281 273 258 245 238 234 231 229 227 229 231 231 229 224 222 221 221 226 231 227 218 211 209 212 214 212 208 208 207 206 207 208 205 204 203 202 204 204 203 203 205 208 209 209 213 214 212 210 211 213 213 212 214 212 209 207 206
309 308 304 299 294 286 278 273 260 249 244 238 232 227 229 232 233 233 230 225 223 223 226 231 233 226 215 208 209 211 213 211 209 208 205 205 208 208 206 202 199 201 202 202 202 205 208 210 210 211 214 216 214 213 214 215 217 217 214 213 212 209
311 309 306 300 295 291 286 279 269 258 252 247 236 227 228 231 232 233 234 231 227 225 227 229 232 231 220 209 206 207 211 213 210 208 205 203 205 209 208 202 199 200 201 200 202 205 206 209 210 211 214 216 218 218 217 216 218 220 219 218 217 213